KC4LW Weather Reports


time (UTC)temp
C
wind
direction
speed
KPH
gust
KPH
rain 1hr
cm
rain 24hr
cm
rain mn
cm
humidity
%
barometer
mb
20260904063059 25 0 0.0 0.0 0.00 0.00 0.00 98 1013.5
20260904061557 25 0 0.0 0.0 0.00 0.00 0.00 98 1013.6
20260904060100 25 0 0.0 0.0 0.00 0.00 0.00 97 1014.0
20260904054602 25 0 0.0 0.0 0.00 0.00 0.00 97 1013.9
20260904053103 25 0 0.0 0.0 0.00 0.00 0.00 97 1014.2
20260904051612 25 0 0.0 0.0 0.00 0.00 0.00 97 1014.7
20260904050109 26 0 0.0 0.0 0.00 0.00 0.00 97 1014.6
20260904044601 26 0 0.0 1.6 0.00 0.00 0.00 96 1014.6
20260904043109 26 0 0.0 4.8 0.00 0.00 0.00 96 1014.7
20260904041605 26 0 0.0 1.6 0.00 0.00 0.00 96 1014.5
20260904040103 26 0 0.0 4.8 0.00 0.00 0.00 96 1014.4
20260904034604 26 63 0.0 3.2 0.00 0.00 0.00 96 1014.6
20260904033101 26 80 1.6 11.3 0.00 0.00 0.00 97 1014.4
20260904031602 26 98 0.0 4.8 0.00 0.00 0.00 97 1014.4
20260904030107 26 0 0.0 3.2 0.00 0.00 0.00 97 1014.3
20260904024601 26 89 1.6 4.8 0.00 0.00 0.00 97 1014.2
20260904023058 26 0 0.0 4.8 0.00 0.00 0.00 97 1014.3
20260904021604 25 0 0.0 1.6 0.00 0.00 0.00 96 1014.2
20260904020059 26 0 0.0 1.6 0.00 0.00 0.00 96 1014.1
20260904014612 26 0 0.0 0.0 0.00 0.00 0.00 96 1014.1
20260904013106 26 0 0.0 0.0 0.00 0.00 0.00 95 1014.1
20260904011603 26 0 0.0 3.2 0.00 0.00 0.00 95 1014.1
20260904010100 26 0 0.0 0.0 0.00 0.00 0.00 94 1013.9
20260904004604 26 0 0.0 0.0 0.00 0.00 0.00 93 1013.6
20260904003057 26 0 0.0 1.6 0.00 0.00 0.00 93 1013.8
20260904001601 26 0 0.0 1.6 0.00 0.00 0.00 92 1013.8
20260903234619 26 0 0.0 6.4 0.00 0.00 0.00 91 1013.6
20260903233103 27 0 0.0 4.8 0.00 0.00 0.00 92 1013.7
20260903231604 27 97 0.0 6.4 0.00 0.00 0.00 91 1013.3
20260903230107 27 94 0.0 4.8 0.00 0.00 0.00 91 1013.4
20260903224601 27 0 0.0 4.8 0.00 0.00 0.00 90 1013.0
20260903223104 27 107 1.6 6.4 0.00 0.00 0.00 89 1012.9
20260903221601 27 0 0.0 4.8 0.00 0.00 0.00 89 1012.7
20260903220120 27 0 0.0 4.8 0.00 0.00 0.00 89 1012.6
20260903214601 27 126 0.0 4.8 0.00 0.00 0.00 89 1012.8
20260903213112 27 105 1.6 9.7 0.00 0.00 0.00 88 1012.6
20260903211603 27 74 1.6 8.0 0.00 0.00 0.00 87 1012.5
20260903210115 27 125 1.6 11.3 0.00 0.00 0.00 86 1012.7
20260903204559 27 0 1.6 9.7 0.00 0.00 0.00 87 1012.9
20260903203058 27 117 0.0 9.7 0.00 0.00 0.00 89 1013.3
20260903201559 27 73 1.6 12.9 0.00 0.00 0.00 88 1013.3
20260903200056 28 77 1.6 11.3 0.00 0.00 0.00 89 1013.5
20260903194600 28 101 4.8 16.1 0.00 0.00 0.00 89 1013.8
20260903193101 28 63 3.2 12.9 0.00 0.00 0.00 88 1014.0
20260903191559 28 87 4.8 14.5 0.00 0.00 0.00 86 1013.7
20260903190056 28 0 3.2 12.9 0.00 0.00 0.00 89 1014.0
20260903184602 28 0 3.2 12.9 0.00 0.00 0.00 90 1014.0
20260903183100 27 71 3.2 12.9 0.00 0.00 0.00 94 1014.0
20260903181555 26 0 3.2 12.9 0.00 0.00 0.00 96 1014.4
20260903180104 26 73 3.2 9.7 0.00 0.00 0.00 97 1014.6
20260903174600 26 82 1.6 11.3 0.00 0.00 0.00 98 1014.7
20260903173058 26 0 0.0 4.8 0.00 0.00 0.00 98 1014.9
20260903171618 26 0 0.0 11.3 0.00 0.00 0.00 97 1015.2
20260903170104 26 0 0.0 6.4 0.00 0.00 0.00 96 1015.3
20260903164608 26 0 0.0 4.8 0.00 0.00 0.00 96 1015.5
20260903163107 26 0 0.0 3.2 0.00 0.00 0.00 95 1015.4
20260903161605 26 94 0.0 4.8 0.00 0.00 0.00 93 1015.7
20260903160110 28 120 8.0 29.0 0.00 0.00 0.00 88 1015.8
20260903154603 29 108 3.2 14.5 0.00 0.00 0.00 85 1015.8
20260903153103 30 93 1.6 12.9 0.00 0.00 0.00 80 1015.8
20260903151603 30 88 3.2 20.9 0.00 0.00 0.00 82 1015.6
20260903150059 30 16 3.2 14.5 0.00 0.00 0.00 84 1015.4
20260903144557 30 38 1.6 17.7 0.00 0.00 0.00 84 1015.3
20260903143111 30 54 3.2 14.5 0.00 0.00 0.00 83 1015.1
20260903141604 30 52 3.2 14.5 0.00 0.00 0.00 85 1015.0
20260903140059 30 138 3.2 16.1 0.00 0.00 0.00 85 1015.1
20260903134557 30 119 1.6 12.9 0.00 0.00 0.00 88 1015.0
20260903133111 29 101 3.2 14.5 0.00 0.00 0.00 88 1015.2
20260903131611 28 0 1.6 8.0 0.00 0.00 0.00 92 1015.1
20260903130119 27 89 0.0 9.7 0.00 0.00 0.00 96 1015.1
20260903124600 27 0 0.0 6.4 0.00 0.00 0.00 99 1015.2
20260903123103 26 0 0.0 9.7 0.00 0.00 0.00 100 1015.2
20260903121601 26 0 0.0 1.6 0.00 0.00 0.00 100 1015.1
20260903120058 26 0 0.0 1.6 0.00 0.00 0.00 99 1014.9
20260903114602 25 0 0.0 0.0 0.00 0.00 0.00 99 1014.6
20260903113117 25 0 0.0 0.0 0.00 0.00 0.00 99 1014.3
20260903111605 25 0 0.0 0.0 0.00 0.00 0.00 99 1013.9
20260903110100 25 0 0.0 1.6 0.00 0.00 0.00 99 1013.9
20260903104600 25 0 0.0 3.2 0.00 0.00 0.00 99 1013.9
20260903103057 25 0 0.0 4.8 0.00 0.00 0.00 99 1013.6
20260903101604 26 0 1.6 3.2 0.00 0.00 0.00 99 1013.5
20260903094610 25 0 0.0 0.0 0.00 0.00 0.00 99 1013.3
20260903093112 25 0 0.0 0.0 0.00 0.00 0.00 99 1013.5
20260903091557 25 0 0.0 0.0 0.00 0.00 0.00 98 1013.3
20260903084558 25 0 0.0 0.0 0.00 0.00 0.00 98 1013.5
20260903083101 25 0 0.0 0.0 0.00 0.00 0.00 98 1013.4
20260903081558 26 0 0.0 1.6 0.00 0.00 0.00 98 1013.3
20260903074555 26 0 0.0 0.0 0.00 0.00 0.00 97 1013.7
20260903073057 26 0 0.0 0.0 0.00 0.00 0.00 97 1013.6
20260903071601 26 0 0.0 1.6 0.00 0.00 0.00 97 1013.9
20260903064555 26 0 0.0 0.0 0.00 0.00 0.00 97 1013.9